Location: Bambrugge
(50.9212°N, 3.9299°E)
Time: 20:45:48
(UTC+00:00)

SL-16 R/B - Pass Details

Date: 08 August 2024
Orbit: 842 x 845 km, 71.0° (Epoch: 10 September)

Event Time Altitude Azimuth Distance (km) Brightness Sun altitude
Exits shadow 03:07:17 - 274° (W) 3,200 4.8 -10.4°
Reaches altitude 10° 03:10:02 10° 291° (WNW) 2,471 4.4 -10.1°
Maximum altitude 03:13:35 17° 330° (NNW) 2,041 4.3 -9.7°
Drops below altitude 10° 03:17:09 10° 10° (N) 2,478 5.4 -9.2°
Sets 03:20:35 0° 30° (NNE) 3,416 6.9 -8.8°
